2023/02/12 00:00:00,80.8,-0.3
2023/02/12 00:10:00,80.8,-0.6
2023/02/12 00:20:00,80.8,-0.7
2023/02/12 00:30:00,80.8,-0.7
2023/02/12 00:40:00,80.8,-1.1
2023/02/12 00:50:00,80.8,-1.0
2023/02/12 01:00:00,80.8,-1.2
2023/02/12 01:10:00,80.8,-1.4
2023/02/12 01:20:00,80.8,-1.5
2023/02/12 01:30:00,80.8,-1.4
2023/02/12 01:40:00,80.8,-1.3
2023/02/12 01:50:00,80.7,-1.4
2023/02/12 02:00:00,80.7,-1.4
2023/02/12 02:10:00,80.7,-1.2
2023/02/12 02:20:00,80.7,-1.2
2023/02/12 02:30:00,80.7,-1.4
2023/02/12 02:40:00,80.6,-1.3
2023/02/12 02:50:00,80.6,-1.2
2023/02/12 03:00:00,80.7,-1.3
2023/02/12 03:10:00,80.7,-1.4
2023/02/12 03:20:00,80.7,-1.3
2023/02/12 03:30:00,80.6,-1.4
2023/02/12 03:40:00,80.6,-1.7
2023/02/12 03:50:00,80.7,-1.5
2023/02/12 04:00:00,80.7,-1.4
2023/02/12 04:10:00,80.7,-1.4
2023/02/12 04:20:00,80.6,-1.3
2023/02/12 04:30:00,80.7,-1.3
2023/02/12 04:40:00,80.7,-1.5
2023/02/12 04:50:00,80.6,-1.6
2023/02/12 05:00:00,80.6,-1.4
2023/02/12 05:10:00,80.6,-1.5
2023/02/12 05:20:00,80.6,-1.6
2023/02/12 05:30:00,80.6,-1.4
2023/02/12 05:40:00,80.6,-1.5
2023/02/12 05:50:00,80.6,-1.5
2023/02/12 06:00:00,80.6,-1.6
2023/02/12 06:10:00,80.6,-1.2
2023/02/12 06:20:00,80.6,-1.4
2023/02/12 06:30:00,80.6,-1.2
2023/02/12 06:40:00,80.6,-1.3
2023/02/12 06:50:00,80.6,-1.4
2023/02/12 07:00:00,80.6,-1.3
2023/02/12 07:10:00,80.6,-1.4
2023/02/12 07:20:00,80.5,-1.2
2023/02/12 07:30:00,80.6,-0.9
2023/02/12 07:40:00,80.5,-0.8
2023/02/12 07:50:00,80.6,-0.5
2023/02/12 08:00:00,80.6,-0.2
2023/02/12 08:10:00,80.5,-0.1
2023/02/12 08:20:00,80.5, 0.6
2023/02/12 08:30:00,80.6, 0.8
2023/02/12 08:40:00,80.7, 1.5
2023/02/12 08:50:00,80.8, 3.3
2023/02/12 09:00:00,80.8, 4.6
2023/02/12 09:10:00,80.6, 6.1
2023/02/12 09:20:00,80.5, 6.3
2023/02/12 09:30:00,80.5, 6.8
2023/02/12 09:40:00,80.3, 7.1
2023/02/12 09:50:00,80.2, 8.0
2023/02/12 10:00:00,80.1, 8.3
2023/02/12 10:10:00,80.0, 9.5
2023/02/12 10:20:00,80.0,10.2
2023/02/12 10:30:00,79.9,11.7
2023/02/12 10:40:00,79.7,13.1
2023/02/12 10:50:00,79.6,14.1
2023/02/12 11:00:00,79.3,15.0
2023/02/12 11:10:00,79.3,16.0
2023/02/12 11:20:00,79.1,15.0
2023/02/12 11:30:00,79.4,14.2
2023/02/12 11:40:00,79.4,14.4
2023/02/12 11:50:00,79.0,14.6
2023/02/12 12:00:00,79.0,13.1
2023/02/12 12:10:00,78.7,13.0
2023/02/12 12:20:00,78.5,15.8
2023/02/12 12:30:00,78.3,13.4
2023/02/12 12:40:00,77.9,13.7
2023/02/12 12:50:00,77.5,13.9
2023/02/12 13:00:00,77.7,12.7
2023/02/12 13:10:00,77.5,14.3
2023/02/12 13:20:00,76.9,17.8
2023/02/12 13:30:00,76.6,15.8
2023/02/12 13:40:00,76.1,16.2
2023/02/12 13:50:00,76.4,17.8
2023/02/12 14:00:00,76.4,15.7
2023/02/12 14:10:00,76.4,14.7
2023/02/12 14:20:00,76.4,17.0
2023/02/12 14:30:00,76.6,19.1
2023/02/12 14:40:00,76.7,21.7
2023/02/12 14:50:00,76.6,21.4
2023/02/12 15:00:00,76.5,21.1
2023/02/12 15:10:00,76.5,19.1
2023/02/12 15:20:00,76.0,20.9
2023/02/12 15:30:00,76.3,21.4
2023/02/12 15:40:00,76.3,19.8
2023/02/12 15:50:00,76.1,19.6
2023/02/12 16:00:00,76.1,16.8
2023/02/12 16:10:00,76.1,15.8
2023/02/12 16:20:00,76.0,14.7
2023/02/12 16:30:00,76.1,11.9
2023/02/12 16:40:00,76.1, 9.3
2023/02/12 16:50:00,76.2, 7.5
2023/02/12 17:00:00,76.2, 6.0
2023/02/12 17:10:00,76.2, 5.2
2023/02/12 17:20:00,76.3, 4.6
2023/02/12 17:30:00,76.4, 3.8
2023/02/12 17:40:00,76.3, 3.6
2023/02/12 17:50:00,76.3, 3.6
2023/02/12 18:00:00,76.3, 2.9
2023/02/12 18:10:00,76.2, 2.7
2023/02/12 18:20:00,76.2, 2.7
2023/02/12 18:30:00,76.2, 2.5
2023/02/12 18:40:00,76.2, 2.6
2023/02/12 18:50:00,76.2, 2.3
2023/02/12 19:00:00,76.2, 2.5
2023/02/12 19:10:00,76.2, 2.5
2023/02/12 19:20:00,76.2, 2.1
2023/02/12 19:30:00,76.2, 2.1
2023/02/12 19:40:00,76.2, 2.1
2023/02/12 19:50:00,76.2, 2.1
2023/02/12 20:00:00,76.2, 2.1
2023/02/12 20:10:00,76.1, 1.9
2023/02/12 20:20:00,76.2, 2.0
2023/02/12 20:30:00,76.1, 2.0
2023/02/12 20:40:00,76.1, 2.0
2023/02/12 20:50:00,76.1, 2.1
2023/02/12 21:00:00,76.1, 2.1
2023/02/12 21:10:00,76.0, 2.4
2023/02/12 21:20:00,76.0, 2.1
2023/02/12 21:30:00,76.0, 2.3
2023/02/12 21:40:00,76.0, 2.3
2023/02/12 21:50:00,76.0, 2.1
2023/02/12 22:00:00,76.0, 2.2
2023/02/12 22:10:00,75.9, 2.3
2023/02/12 22:20:00,76.0, 2.2
2023/02/12 22:30:00,75.9, 2.5
2023/02/12 22:40:00,75.9, 2.4
2023/02/12 22:50:00,75.9, 2.6
2023/02/12 23:00:00,75.9, 2.5
2023/02/12 23:10:00,75.8, 2.9
2023/02/12 23:20:00,75.8, 2.5
2023/02/12 23:30:00,75.8, 2.7
2023/02/12 23:40:00,75.8, 2.7
2023/02/12 23:50:00,75.8, 2.8
